sat.trackr.live / text

‹ back to catalog

HELLAS-SAT 4 & SGS-1

NORAD 44034 · 2019-007A

PAYLOAD ACTIVE UNKNOWN

§ Identity

Operator
Country
GRSA
Launch date
2019-02-05
Launch site
FRGUI
Launch vehicle
Mass (kg)
RCS (m²)

Purposes: comms

External: N2YO · Heavens-Above · Gunter

§ Orbital elements

Epoch: 2026-09-10T02:12:54.662112Z

Period
1,436.10 min
Inclination
0.0627°
Eccentricity
0.0006084
Mean motion
1.00271275 rev/d
Perigee alt
35,761.1 km
Apogee alt
35,812.4 km
Semi-major
42,164.9 km
B*
0.0000e+0
RAAN
129.3588°
Arg perigee
32.8669°
Mean anomaly
259.1329°
Rev number
2,822

§ Raw data

HELLAS-SAT 4 & SGS-11 44034U 19007A   26253.09229933  .00000132  00000+0  00000+0 0  99912 44034   0.0627 129.3588 0006084  32.8669 259.1329  1.00271275 28220

JSON: /api/v1/satellites/44034 · /tle

For live sub-satellite position, see the globe view (requires WebGL).

§ Visibility from observer

Set your observer location to see the next 7 days of passes ≥ 10°. The values pass through the URL so the page stays shareable.

No JS? Fill the form by hand. The geolocation button needs JavaScript.